CAPE
16 20 33 22 44 9 24 18 6 11 12 3 3 5 0 0 0 3 0 0 3 0 0 0 0 0 0 0 0 0 0 0 0 0 0 0 37 24 3 13 7 6 14 0
14 40 24 28 32 18 16 12 2 20 28 0 0 3 5 1 2 0 0 0 0 8 10 0 0 0 0 0 0 0 0 0 0 0 0 0 0 0 0 1 0 0 0 0
30 37 51 30 26 33 14 1 0 12 29 0 0 0 38 11 11 0 0 0 0 6 19 1 0 0 0 0 0 0 0 0 0 0 0 1 0 0 0 0 3 0 0 0
40 40 71 58 20 31 10 7 0 1 6 4 0 0 0 17 21 0 0 0 0 2 27 9 16 0 0 0 0 0 0 0 0 0 0 0 0 0 0 0 0 0 0 0
32 33 52 33 21 26 9 0 14 18 6 2 0 0 0 20 22 0 0 0 0 9 27 25 36 0 0 14 0 0 1 0 0 0 0 0 0 0 0 0 0 0 0 0
29 21 15 23 22 25 5 1 13 15 5 3 15 2 0 1 32 4 0 0 0 1 9 27 17 0 0 0 0 11 3 5 0 0 0 0 0 0 0 0 0 0 0 0
31 11 14 22 23 21 3 2 15 18 24 16 4 0 0 0 8 23 11 0 0 0 7 19 12 0 0 0 0 1 14 10 7 1 0 0 0 0 0 0 0 0 0 0
18 33 34 45 23 22 8 10 5 13 4 9 5 4 1 0 4 37 24 3 0 0 1 0 0 0 0 0 0 1 20 31 9 2 0 0 0 0 0 0 0 0 0 0
23 23 12 22 19 23 15 17 1 24 13 6 16 19 15 0 3 38 25 28 10 0 8 8 0 0 0 0 0 0 0 0 49 0 8 0 0 0 0 0 0 19 0 0
18 16 6 16 18 30 11 5 0 0 11 10 49 21 1 13 19 1 32 24 21 12 22 0 0 0 1 0 0 0 0 0 0 3 4 0 0 0 0 0 0 3 0 0
14 4 23 7 21 7 14 6 35 24 20 12 43 38 19 41 49 8 5 37 0 0 2 0 1 0 0 2 0 0 14 11 0 3 0 0 0 0 0 0 0 0 0 0
4 21 5 9 27 3 0 0 11 29 37 16 2 2 0 1 71 2 6 0 0 0 0 0 0 1 0 0 0 1 0 0 35 0 0 4 0 0 0 0 0 0 0 0
13 4 6 16 25 13 2 1 0 1 7 0 0 0 0 0 7 105 16 0 0 0 0 0 0 0 0 0 0 0 0 0 0 0 0 0 0 0 0 0 0 0 0 0
2 3 7 30 20 5 0 3 2 8 4 4 0 15 0 0 0 61 16 22 3 34 0 0 0 0 0 0 0 0 0 0 0 0 0 0 0 0 1 0 0 0 0 0
14 20 19 22 2 1 3 4 3 0 0 1 3 14 0 0 0 21 32 28 38 104 12 0 0 8 0 0 0 0 0 0 0 0 0 0 40 26 0 0 0 0 0 0
17 20 17 1 1 1 0 0 3 0 0 0 0 18 9 0 0 14 39 40 22 44 25 33 16 11 0 0 0 0 0 0 0 0 0 0 0 0 0 0 0 0 0 0
4 8 2 0 0 0 1 2 0 0 0 0 0 8 0 0 1 104 52 45 27 19 26 12 41 60 6 4 0 0 0 0 0 0 0 0 0 0 0 0 0 0 0 0
5 11 5 1 0 0 0 36 1 1 0 0 0 10 22 7 17 49 94 54 33 47 22 17 10 17 7 15 0 0 0 0 0 0 0 0 0 0 0 0 0 0 0 0
4 6 8 3 10 4 2 1 0 0 0 0 0 11 46 66 20 16 3 17 8 13 9 11 15 5 0 0 0 0 2 0 0 0 0 0 0 0 0 0 0 0 0 0
5 0 5 3 0 2 0 4 1 0 1 6 1 1 0 9 0 6 3 0 8 8 0 15 6 2 5 0 0 0 0 0 0 0 0 0 0 0 0 0 0 0 0 0
4 17 3 2 4 42 20 6 3 4 1 1 0 0 0 0 4 0 0 0 1 0 0 14 19 11 4 1 0 0 0 0 0 0 0 0 0 0 0 0 1 0 0 0
6 10 16 40 25 5 0 0 0 0 0 11 3 7 0 9 12 0 1 0 0 0 1 1 0 2 2 4 3 2 0 0 0 0 0 0 0 0 0 1 1 0 0 1
13 9 14 55 0 0 0 0 0 0 0 0 1 0 13 4 1 0 0 0 0 0 0 0 0 2 1 1 1 1 4 1 0 0 0 0 0 1 0 2 3 3 3 1
0 1 2 0 1 1 3 3 1 0 0 0 1 0 0 0 0 0 1 0 0 1 1 1 1 1 1 0 0 0 1 1 3 5 2 1 1 2 2 2 2 2 0 2
0 0 0 0 0 1 2 1 1 1 0 0 0 1 0 0 0 0 0 1 3 3 3 2 1 1 1 1 1 1 1 1 2 2 1 1 2 1 1 1 2 2 1 0
0 0 0 0 0 0 1 1 1 2 0 0 0 0 0 1 1 0 1 1 3 2 2 1 0 2 2 2 1 2 2 3 1 1 1 1 0 1 1 1 0 1 0 0
0 0 0 0 0 0 0 0 2 2 1 1 1 0 1 0 0 3 1 2 2 2 2 2 0 0 1 1 1 2 1 2 2 3 2 2 2 1 1 0 2 1 2 1
CIN
-0 -0 -0 -0 -0 -7 -1 -0 -0 -1 -14 -0 -12 -0 -0 -0 -0 -0 -0 -0 -24 -0 -0 -0 -0 -0 -0 -0 -0 -0 -0 -0 -0 -0 -0 -0 -4 -2 -2 -3 -41 -91 -69 -3
-1 -0 -0 -0 -0 -1 -0 -0 -0 -2 -1 -0 -0 -0 -3 -1 -2 -0 -0 -0 -0 -89 -62 -0 -0 -0 -0 -0 -0 -0 -0 -0 -0 -0 -0 -0 -0 -0 -0 -4 -16 -0 -0 -0
-3 -0 -1 -0 -0 -0 -0 -4 -0 -0 -0 -0 -0 -0 -1 -2 -3 -0 -0 -0 -0 -75 -56 -31 -0 -0 -0 -0 -0 -0 -0 -0 -0 -0 -0 -0 -0 -0 -0 -3 -4 -0 -0 -0
-2 -3 -0 -0 -0 -0 -0 -0 -0 -0 -2 -0 -0 -0 -0 -3 -2 -0 -0 -0 -0 -40 -38 -62 -47 -0 -0 -0 -0 -0 -0 -0 -0 -0 -0 -0 -0 -0 -2 -2 -0 -0 -0 -0
-3 -1 -2 -1 -0 -0 -0 -0 -1 -0 -2 -1 -0 -0 -0 -3 -3 -0 -0 -0 -0 -73 -35 -40 -51 -0 -0 -65 -1 -0 -20 -0 -0 -0 -0 -0 -0 -0 -0 -0 -0 -0 -0 -0
-0 -0 -0 -0 -0 -0 -0 -0 -1 -0 -3 -2 -0 -0 -0 -1 -3 -3 -0 -0 -0 -84 -122 -115 -150 -0 -0 -0 -38 -83 -49 -31 -0 -0 -0 -0 -0 -0 -0 -0 -0 -0 -0 -0
-0 -0 -0 -0 -0 -0 -1 -2 -1 -0 -1 -2 -1 -0 -0 -0 -4 -3 -2 -0 -0 -0 -201 -211 -196 -0 -0 -0 -0 -94 -65 -62 -39 -9 -0 -0 -0 -0 -0 -0 -0 -0 -0 -0
-0 -0 -0 -0 -0 -0 -1 -3 -1 -1 -1 -1 -2 -3 -4 -0 -2 -5 -3 -0 -0 -0 -163 -0 -0 -0 -0 -0 -0 -109 -90 -74 -59 -33 -0 -0 -0 -0 -0 -0 -0 -0 -0 -0
-0 -0 -0 -0 -0 -0 -1 -1 -4 -3 -1 -2 -1 -3 -3 -0 -6 -3 -2 -2 -15 -6 -164 -89 -0 -0 -0 -0 -0 -0 -0 -0 -52 -0 -21 -0 -0 -0 -0 -0 -0 -30 -0 -0
-0 -0 -0 -0 -0 -0 -3 -1 -0 -0 -1 -2 -1 -3 -3 -2 -1 -1 -1 -7 -12 -11 -46 -40 -0 -0 -18 -0 -0 -0 -0 -0 -0 -57 -38 -0 -0 -0 -0 -0 -0 -21 -0 -0
-0 -7 -0 -0 -0 -0 -0 -1 -10 -2 -2 -5 -4 -2 -1 -3 -1 -2 -2 -3 -0 -0 -0 -0 -32 -2 -0 -6 -0 -0 -49 -50 -0 -91 -0 -0 -0 -0 -0 -0 -0 -0 -0 -0
-6 -0 -0 -0 -0 -1 -13 -0 -20 -19 -5 -4 -2 -2 -0 -7 -1 -2 -1 -0 -0 -0 -0 -0 -0 -6 -1 -0 -0 -8 -4 -0 -23 -0 -0 -52 -0 -0 -0 -3 -0 -0 -0 -0
-0 -0 -0 -0 -0 -0 -20 -0 -0 -10 -8 -0 -0 -0 -0 -0 -28 -51 -9 -0 -0 -0 -0 -0 -0 -0 -0 -0 -0 -0 -0 -0 -0 -0 -0 -0 -0 -0 -0 -0 -0 -0 -0 -0
-0 -0 -0 -0 -0 -1 -1 -0 -0 -1 -3 -0 -1 -29 -0 -0 -0 -66 -48 -7 -9 -13 -0 -0 -0 -0 -0 -0 -0 -0 -0 -0 -0 -0 -0 -0 -0 -12 -49 -0 -0 -0 -0 -0
-0 -0 -0 -0 -0 -0 -1 -1 -1 -0 -0 -1 -2 -25 -3 -0 -4 -30 -27 -21 -1 -5 -9 -0 -0 -0 -0 -0 -0 -0 -0 -0 -0 -0 -0 -0 -4 -75 -0 -0 -0 -0 -0 -0
-0 -0 -0 -0 -1 -1 -0 -0 -1 -0 -0 -0 -0 -2 -1 -0 -0 -20 -9 -18 -8 -3 -1 -0 -3 -20 -0 -0 -0 -0 -0 -0 -0 -0 -0 -2 -0 -0 -0 -0 -0 -0 -0 -0
-1 -1 -0 -0 -0 -0 -2 -1 -0 -0 -0 -0 -0 -2 -0 -3 -0 -0 -0 -1 -5 -1 -0 -1 -0 -5 -4 -11 -0 -0 -0 -0 -0 -0 -0 -0 -0 -0 -0 -0 -0 -0 -0 -0
-1 -0 -1 -2 -0 -0 -0 -3 -37 -0 -0 -0 -0 -2 -0 -0 -0 -6 -1 -0 -0 -0 -0 -4 -0 -4 -11 -0 -0 -0 -0 -0 -0 -0 -0 -0 -0 -0 -0 -0 -0 -0 -0 -0
-3 -1 -1 -0 -0 -0 -14 -2 -0 -0 -0 -0 -0 -3 -0 -10 -9 -13 -14 -3 -1 -1 -0 -0 -3 -4 -0 -0 -0 -0 -10 -0 -0 -0 -0 -0 -0 -0 -0 -0 -0 -0 -0 -0
-4 -0 -5 -3 -0 -3 -0 -1 -1 -0 -0 -0 -0 -0 -0 -15 -1 -29 -0 -0 -21 -7 -2 -5 -2 -0 -1 -0 -0 -0 -0 -0 -0 -0 -0 -0 -0 -0 -0 -0 -0 -0 -0 -0
-5 -3 -0 -0 -2 -0 -0 -2 -0 -0 -0 -0 -0 -0 -0 -0 -6 -0 -0 -0 -0 -0 -0 -0 -7 -3 -7 -0 -0 -0 -0 -0 -0 -0 -0 -0 -0 -0 -0 -0 -0 -0 -0 -0
-1 -4 -2 -4 -5 -17 -0 -0 -0 -0 -0 -42 -39 -15 -0 -0 -0 -0 -0 -0 -0 -0 -0 -0 -0 -0 -0 -0 -0 -0 -0 -0 -0 -0 -0 -0 -0 -0 -0 -0 -0 -0 -0 -0
-2 -5 -18 -1 -3 -6 -0 -0 -0 -1 -0 -0 -13 -1 -0 -13 -0 -0 -0 -0 -0 -0 -0 -0 -0 -0 -0 -0 -0 -0 -0 -0 -0 -0 -0 -0 -0 -0 -0 -0 -0 -0 -0 -0
-0 -5 -1 -0 -0 -0 -0 -0 -0 -0 -0 -0 -14 -0 -28 -0 -0 -0 -0 -0 -0 -0 -0 -0 -0 -0 -0 -0 -0 -0 -0 -0 -0 -0 -0 -0 -0 -0 -0 -0 -0 -0 -0 -0
-0 -0 -0 -0 -0 -0 -0 -0 -0 -0 -0 -0 -0 -0 -0 -0 -0 -0 -0 -0 -0 -0 -0 -0 -0 -0 -0 -0 -0 -0 -0 -0 -0 -0 -0 -0 -0 -0 -0 -0 -0 -0 -0 -0
-0 -0 -0 -0 -0 -0 -0 -0 -0 -0 -0 -0 -0 -0 -0 -0 -0 -0 -0 -0 -0 -0 -0 -0 -0 -0 -0 -0 -0 -0 -0 -0 -0 -0 -0 -0 -0 -0 -0 -0 -0 -0 -0 -0
-0 -0 -0 -0 -0 -0 -0 -0 -0 -0 -0 -0 -0 -0 -0 -0 -0 -0 -0 -0 -0 -0 -0 -0 -0 -0 -0 -0 -0 -0 -0 -0 -0 -0 -0 -0 -0 -0 -0 -0 -0 -0 -0 -0
Wind_Speed
39 37 37 34 32 27 24 28 33 28 33 43 45 53 47 36 37 31 28 27 28 23 21 21 24 27 26 16 15 19 15 20 22 9 8 9 1 3 5 6 16 25 25 27
45 43 40 38 36 33 28 32 29 24 34 53 56 54 53 48 38 36 33 30 26 23 23 24 28 28 26 17 14 18 13 22 24 19 12 8 4 2 2 9 21 28 29 27
45 45 44 42 39 37 32 31 33 26 36 51 56 57 52 51 48 46 36 33 28 24 24 24 23 28 23 22 19 19 13 22 21 22 17 8 6 6 8 8 5 17 26 33
41 49 47 45 43 42 36 39 35 31 36 47 57 60 52 52 46 47 40 38 36 29 25 24 24 23 22 20 22 21 20 29 22 25 23 12 6 6 7 11 9 8 33 33
39 51 50 49 46 45 42 41 37 32 27 39 57 57 64 54 55 46 46 43 35 29 29 23 22 19 19 22 21 23 22 27 20 24 18 12 10 9 12 11 8 20 32 38
39 54 57 51 50 48 43 40 41 34 37 33 57 65 61 61 50 56 49 42 34 40 40 31 25 26 26 26 24 22 25 29 25 29 21 21 14 9 8 9 6 8 10 33
55 60 59 57 51 48 43 40 35 37 32 31 51 62 61 58 54 56 38 43 41 31 21 22 26 28 29 29 29 26 25 26 25 29 20 30 15 13 7 11 6 11 30 33
62 56 50 59 48 46 43 37 40 35 36 27 42 56 65 53 50 50 47 37 39 25 26 33 35 32 34 35 31 28 25 25 27 28 27 27 18 12 10 5 6 10 33 37
58 46 45 45 45 47 42 38 39 31 30 30 42 48 48 60 53 46 43 39 24 23 27 30 36 38 31 32 28 25 23 26 29 25 31 31 22 17 15 15 10 25 19 24
44 45 41 45 43 45 37 36 34 33 29 30 38 43 51 49 50 48 38 32 31 27 32 34 36 37 28 33 35 27 27 27 31 29 32 26 21 14 12 14 15 20 18 19
37 43 51 43 43 34 38 32 28 23 22 25 34 35 40 44 47 47 39 35 35 34 37 36 31 33 31 31 30 30 27 29 30 28 32 31 12 14 15 19 24 22 19 16
47 49 41 41 43 32 23 30 30 22 19 20 23 26 25 30 38 41 37 42 36 31 33 32 31 32 28 30 34 28 34 32 30 29 31 26 12 16 18 25 25 22 18 15
45 37 38 37 51 34 29 19 21 24 22 25 27 30 30 23 28 30 39 41 34 40 32 29 31 34 28 36 40 34 31 28 33 34 32 28 25 20 24 23 23 21 17 11
35 37 40 44 34 28 25 28 16 16 19 30 30 22 35 37 31 35 38 34 35 30 31 34 35 37 31 36 34 36 32 25 29 34 38 36 31 27 23 21 20 19 16 11
31 32 31 27 24 18 16 17 22 18 18 22 31 28 30 30 33 39 39 36 34 30 32 34 37 31 28 31 32 38 26 26 26 37 38 28 36 25 18 19 17 16 12 9
26 25 25 24 19 15 12 18 22 18 19 24 22 21 24 28 33 39 38 43 36 31 31 32 33 29 32 34 39 35 28 27 26 35 29 30 31 29 21 17 17 13 11 8
24 23 22 20 15 9 14 15 8 7 13 25 26 20 22 26 25 26 27 34 39 37 36 33 31 30 31 38 45 30 30 28 26 26 27 32 29 30 22 21 15 11 9 8
19 18 18 17 13 15 18 10 18 10 21 23 25 22 18 19 22 18 19 27 30 32 35 32 35 30 31 40 39 37 31 25 23 25 27 30 27 25 23 18 14 12 10 8
21 24 15 10 17 14 19 7 29 25 19 25 26 23 21 19 16 14 17 18 29 25 34 33 29 33 38 35 32 28 22 24 35 24 24 25 25 24 21 14 12 13 11 9
27 13 13 9 16 4 19 4 11 7 27 25 25 22 23 19 18 19 16 17 22 26 31 24 36 45 35 30 26 24 24 23 22 27 29 25 27 26 22 17 17 14 11 9
21 16 9 3 20 3 6 3 2 24 24 28 30 27 21 20 23 20 16 16 17 25 21 26 30 33 33 34 31 28 27 25 23 26 27 26 27 21 20 18 15 11 8 8
13 6 12 22 10 9 13 14 22 26 27 26 29 26 23 19 17 13 15 16 16 19 16 20 25 27 31 29 28 28 27 27 28 30 29 27 23 19 17 15 12 8 7 6
24 27 27 25 23 26 26 30 27 28 26 24 23 20 20 18 16 13 15 18 20 18 17 18 21 28 28 28 25 22 21 19 19 20 19 19 17 13 11 10 8 6 6 6
22 23 26 21 22 22 26 25 23 24 23 22 19 18 18 18 17 15 15 16 17 19 19 20 25 29 28 24 20 17 16 15 14 14 12 11 10 9 8 7 5 4 5 5
18 15 17 17 17 19 20 22 25 23 25 26 23 17 16 15 14 15 14 16 17 18 20 22 28 28 23 19 16 14 13 13 12 12 11 10 9 9 9 8 6 4 4 5
16 14 15 12 18 15 17 19 22 22 25 24 19 16 14 14 14 15 16 15 16 18 22 26 25 22 19 16 14 13 12 13 12 12 12 11 9 9 10 10 9 8 8 8
18 17 9 11 16 13 11 11 14 18 20 20 14 12 14 15 14 14 16 16 18 22 22 22 21 19 17 15 14 13 13 13 13 13 13 12 12 12 11 11 11 11 12 12
Wind_Direction
253 247 242 234 227 224 224 239 246 233 215 226 236 235 232 241 238 242 250 252 253 256 258 249 246 244 246 256 228 233 246 273 274 290 334 328 148 132 153 299 295 273 284 285
252 245 239 231 220 212 217 234 245 228 221 225 230 236 238 236 236 235 239 242 249 252 260 254 248 250 248 254 239 237 232 263 266 282 300 311 289 207 223 303 287 276 276 283
248 243 235 226 213 208 214 231 233 233 228 230 224 230 234 233 236 235 239 240 244 248 252 254 254 248 252 245 250 252 231 260 264 273 286 295 272 198 193 202 263 298 284 273
242 240 231 225 207 203 212 225 235 230 222 224 222 225 231 232 231 232 233 237 237 240 248 252 251 253 249 252 254 257 252 257 265 274 284 288 224 211 207 205 213 244 280 284
231 235 228 221 201 199 216 223 230 225 240 223 223 221 225 230 228 229 230 235 234 237 241 250 247 248 252 253 256 254 256 257 268 273 286 285 220 218 215 213 234 296 290 277
221 227 222 219 201 199 217 221 228 226 238 223 226 223 223 226 229 230 233 235 238 237 241 249 259 260 261 260 261 260 258 255 264 267 283 287 293 266 219 210 225 290 303 285
222 219 217 216 197 197 216 217 223 228 236 229 228 225 224 225 228 227 235 233 235 242 250 257 262 260 258 261 259 262 262 256 262 266 279 273 292 309 202 208 244 301 240 263
213 215 213 211 191 191 215 214 220 230 236 232 230 225 223 227 228 229 234 238 239 249 247 248 250 252 255 253 259 259 257 258 260 262 269 283 299 299 300 268 263 302 263 255
207 208 201 193 186 188 213 217 219 233 236 238 230 224 225 221 223 226 233 234 242 235 242 241 243 244 249 247 255 259 256 258 258 268 268 274 289 291 292 309 242 302 313 314
200 200 197 184 187 192 209 218 221 231 243 240 231 228 223 223 223 223 227 230 233 236 237 240 242 245 249 245 245 253 251 254 254 262 269 284 290 293 291 289 277 316 313 320
188 190 179 175 178 189 205 213 220 220 240 246 235 233 228 223 223 220 225 226 232 233 236 239 244 247 248 250 248 250 256 254 258 263 267 273 301 292 281 293 297 308 310 318
186 185 170 172 172 186 195 212 221 230 236 246 240 239 248 237 227 225 223 228 231 235 236 242 247 249 253 251 252 256 257 258 265 267 275 283 278 294 292 293 296 303 307 315
180 169 166 175 158 176 206 215 221 229 240 248 242 239 238 251 242 241 227 231 237 235 243 248 253 254 258 254 253 260 263 264 266 272 276 280 282 288 295 295 296 301 307 310
159 170 179 183 157 193 203 213 225 233 245 244 242 252 242 244 252 242 236 239 236 244 242 247 250 252 260 258 262 261 264 267 262 267 269 275 283 287 291 295 298 298 303 300
162 168 170 171 171 179 205 221 237 247 249 239 240 256 247 238 244 242 234 235 233 237 241 245 246 256 264 265 266 260 265 270 261 266 268 277 280 295 296 293 292 295 294 291
155 155 151 150 154 163 203 235 244 247 253 243 243 249 235 239 243 238 230 229 236 240 244 248 253 259 259 263 261 265 270 271 273 267 278 278 284 289 299 300 295 289 283 266
130 133 132 138 145 180 227 250 265 209 240 231 237 246 243 235 242 230 232 232 235 240 244 250 255 258 260 261 258 275 275 273 276 279 279 278 282 287 296 301 298 290 286 267
132 126 124 121 192 217 230 272 109 183 220 218 227 229 230 224 228 222 231 230 233 240 244 253 253 260 265 261 266 272 277 286 281 277 278 280 285 287 294 300 294 278 275 258
110 110 114 187 214 224 218 71 133 202 219 225 222 218 215 213 218 230 235 241 237 250 247 252 256 256 257 268 274 280 286 282 276 281 284 282 281 285 292 293 280 274 266 252
107 117 192 201 208 177 92 53 92 90 219 228 228 229 229 236 230 233 237 247 247 250 251 259 255 253 266 276 287 292 292 289 289 278 276 282 284 286 281 281 282 278 262 252
176 197 226 194 108 36 322 351 39 215 215 203 206 213 236 244 234 233 251 251 263 253 265 259 261 263 269 281 283 287 290 291 290 286 286 287 287 285 283 284 280 273 259 250
212 217 68 132 164 277 252 235 222 211 206 200 199 207 216 225 230 239 250 256 266 266 283 272 266 281 289 291 288 288 288 288 285 286 287 288 286 284 281 280 279 270 268 259
156 154 154 157 157 180 193 187 188 198 208 208 202 211 213 215 229 247 256 255 256 272 278 277 296 298 299 295 294 297 301 302 302 299 301 302 296 293 283 282 281 278 273 269
155 149 143 148 148 159 175 189 191 207 215 213 217 219 219 222 235 253 261 270 267 266 270 281 300 301 302 306 312 311 312 320 320 320 325 327 323 315 320 324 315 298 284 281
161 161 153 157 170 182 185 182 179 190 197 202 208 221 236 243 255 265 275 273 274 280 285 307 311 319 332 329 337 328 334 334 339 336 336 336 337 353 1 356 344 9 39 33
154 154 162 168 156 167 173 180 181 190 186 191 210 228 239 250 265 266 264 280 283 285 295 297 307 321 335 342 338 344 352 360 1 359 3 3 3 13 23 25 18 14 7 1
139 139 137 152 155 165 176 189 195 197 194 200 230 251 249 253 274 280 287 294 301 297 308 320 328 336 341 345 347 353 2 5 5 7 11 16 24 28 22 10 360 358 353 350